owner,sensor,date,latitude,longitude,vertical_datum,sea_water_temperature,qcFlag 
FWRI,ioos:station:wmo:mtbf1:1,2013-03-01T00:07:00Z,27.6610,-82.5940,0.0,20.55,2 
FWRI,ioos:station:wmo:mtbf1:1,2013-03-01T00:37:00Z,27.6610,-82.5940,0.0,20.58,2 
FWRI,ioos:station:wmo:mtbf1:1,2013-03-01T01:07:00Z,27.6610,-82.5940,0.0,20.64,2 
FWRI,ioos:station:wmo:mtbf1:1,2013-03-01T01:37:00Z,27.6610,-82.5940,0.0,20.66,2 
FWRI,ioos:station:wmo:mtbf1:1,2013-03-01T02:07:00Z,27.6610,-82.5940,0.0,20.65,2 
FWRI,ioos:station:wmo:mtbf1:1,2013-03-01T02:37:00Z,27.6610,-82.5940,0.0,20.64,2 
FWRI,ioos:station:wmo:mtbf1:1,2013-03-01T03:07:00Z,27.6610,-82.5940,0.0,20.63,2 
FWRI,ioos:station:wmo:mtbf1:1,2013-03-01T03:37:00Z,27.6610,-82.5940,0.0,20.65,2 
FWRI,ioos:station:wmo:mtbf1:1,2013-03-01T04:07:00Z,27.6610,-82.5940,0.0,20.6,2 
FWRI,ioos:station:wmo:mtbf1:1,2013-03-01T04:37:00Z,27.6610,-82.5940,0.0,20.56,2 
FWRI,ioos:station:wmo:mtbf1:1,2013-03-01T05:07:00Z,27.6610,-82.5940,0.0,20.68,2 
FWRI,ioos:station:wmo:mtbf1:1,2013-03-01T05:37:00Z,27.6610,-82.5940,0.0,20.71,2 
FWRI,ioos:station:wmo:mtbf1:1,2013-03-01T06:07:00Z,27.6610,-82.5940,0.0,20.65,2 
FWRI,ioos:station:wmo:mtbf1:1,2013-03-01T06:37:00Z,27.6610,-82.5940,0.0,20.55,2 
FWRI,ioos:station:wmo:mtbf1:1,2013-03-01T07:07:00Z,27.6610,-82.5940,0.0,20.5,2 
FWRI,ioos:station:wmo:mtbf1:1,2013-03-01T07:37:00Z,27.6610,-82.5940,0.0,20.48,2 
FWRI,ioos:station:wmo:mtbf1:1,2013-03-01T08:07:00Z,27.6610,-82.5940,0.0,20.37,2 
FWRI,ioos:station:wmo:mtbf1:1,2013-03-01T08:37:00Z,27.6610,-82.5940,0.0,20.25,2 
FWRI,ioos:station:wmo:mtbf1:1,2013-03-01T09:07:00Z,27.6610,-82.5940,0.0,20.18,2 
FWRI,ioos:station:wmo:mtbf1:1,2013-03-01T09:37:00Z,27.6610,-82.5940,0.0,20.16,2 
FWRI,ioos:station:wmo:mtbf1:1,2013-03-01T10:07:00Z,27.6610,-82.5940,0.0,20.17,2 
FWRI,ioos:station:wmo:mtbf1:1,2013-03-01T10:37:00Z,27.6610,-82.5940,0.0,20.13,2 
FWRI,ioos:station:wmo:mtbf1:1,2013-03-01T11:07:00Z,27.6610,-82.5940,0.0,20.12,2 
FWRI,ioos:station:wmo:mtbf1:1,2013-03-01T11:37:00Z,27.6610,-82.5940,0.0,20.15,2 
FWRI,ioos:station:wmo:mtbf1:1,2013-03-01T12:07:00Z,27.6610,-82.5940,0.0,20.15,2 
FWRI,ioos:station:wmo:mtbf1:1,2013-03-01T12:37:00Z,27.6610,-82.5940,0.0,20.2,2 
FWRI,ioos:station:wmo:mtbf1:1,2013-03-01T13:07:00Z,27.6610,-82.5940,0.0,20.24,2 
FWRI,ioos:station:wmo:mtbf1:1,2013-03-01T13:37:00Z,27.6610,-82.5940,0.0,20.2,2 
FWRI,ioos:station:wmo:mtbf1:1,2013-03-01T14:07:00Z,27.6610,-82.5940,0.0,20.22,2 
FWRI,ioos:station:wmo:mtbf1:1,2013-03-01T14:37:00Z,27.6610,-82.5940,0.0,20.17,2 
FWRI,ioos:station:wmo:mtbf1:1,2013-03-01T15:07:00Z,27.6610,-82.5940,0.0,20.17,2 
FWRI,ioos:station:wmo:mtbf1:1,2013-03-01T15:37:00Z,27.6610,-82.5940,0.0,20.19,2 
FWRI,ioos:station:wmo:mtbf1:1,2013-03-01T16:07:00Z,27.6610,-82.5940,0.0,20.17,2 
FWRI,ioos:station:wmo:mtbf1:1,2013-03-01T16:37:00Z,27.6610,-82.5940,0.0,20.19,2 
FWRI,ioos:station:wmo:mtbf1:1,2013-03-01T17:07:00Z,27.6610,-82.5940,0.0,20.18,2 
FWRI,ioos:station:wmo:mtbf1:1,2013-03-01T17:37:00Z,27.6610,-82.5940,0.0,20.17,2 
FWRI,ioos:station:wmo:mtbf1:1,2013-03-01T18:07:00Z,27.6610,-82.5940,0.0,20.18,2 
FWRI,ioos:station:wmo:mtbf1:1,2013-03-01T18:37:00Z,27.6610,-82.5940,0.0,20.18,2 
FWRI,ioos:station:wmo:mtbf1:1,2013-03-01T19:07:00Z,27.6610,-82.5940,0.0,20.16,2 
FWRI,ioos:station:wmo:mtbf1:1,2013-03-01T19:37:00Z,27.6610,-82.5940,0.0,20.11,2 
FWRI,ioos:station:wmo:mtbf1:1,2013-03-01T20:07:00Z,27.6610,-82.5940,0.0,20.1,2 
FWRI,ioos:station:wmo:mtbf1:1,2013-03-01T20:37:00Z,27.6610,-82.5940,0.0,20.07,2 
FWRI,ioos:station:wmo:mtbf1:1,2013-03-01T21:07:00Z,27.6610,-82.5940,0.0,20.06,2 
FWRI,ioos:station:wmo:mtbf1:1,2013-03-01T21:37:00Z,27.6610,-82.5940,0.0,20.04,2 
FWRI,ioos:station:wmo:mtbf1:1,2013-03-01T22:07:00Z,27.6610,-82.5940,0.0,20.0,2 
FWRI,ioos:station:wmo:mtbf1:1,2013-03-01T22:37:00Z,27.6610,-82.5940,0.0,19.97,2 
FWRI,ioos:station:wmo:mtbf1:1,2013-03-01T23:07:00Z,27.6610,-82.5940,0.0,19.98,2 
FWRI,ioos:station:wmo:mtbf1:1,2013-03-01T23:37:00Z,27.6610,-82.5940,0.0,19.98,2 
FWRI,ioos:station:wmo:mtbf1:1,2013-03-02T00:07:00Z,27.6610,-82.5940,0.0,20.06,2 
FWRI,ioos:station:wmo:mtbf1:1,2013-03-02T00:37:00Z,27.6610,-82.5940,0.0,20.08,2 
FWRI,ioos:station:wmo:mtbf1:1,2013-03-02T01:07:00Z,27.6610,-82.5940,0.0,20.07,2 
FWRI,ioos:station:wmo:mtbf1:1,2013-03-02T01:37:00Z,27.6610,-82.5940,0.0,20.06,2 
FWRI,ioos:station:wmo:mtbf1:1,2013-03-02T02:07:00Z,27.6610,-82.5940,0.0,20.02,2 
FWRI,ioos:station:wmo:mtbf1:1,2013-03-02T02:37:00Z,27.6610,-82.5940,0.0,19.97,2 
FWRI,ioos:station:wmo:mtbf1:1,2013-03-02T03:07:00Z,27.6610,-82.5940,0.0,19.93,2 
FWRI,ioos:station:wmo:mtbf1:1,2013-03-02T03:37:00Z,27.6610,-82.5940,0.0,19.91,2 
FWRI,ioos:station:wmo:mtbf1:1,2013-03-02T04:07:00Z,27.6610,-82.5940,0.0,19.87,2 
FWRI,ioos:station:wmo:mtbf1:1,2013-03-02T04:37:00Z,27.6610,-82.5940,0.0,19.8,2 
FWRI,ioos:station:wmo:mtbf1:1,2013-03-02T05:07:00Z,27.6610,-82.5940,0.0,19.84,2 
FWRI,ioos:station:wmo:mtbf1:1,2013-03-02T05:37:00Z,27.6610,-82.5940,0.0,19.92,2 
FWRI,ioos:station:wmo:mtbf1:1,2013-03-02T06:07:00Z,27.6610,-82.5940,0.0,19.82,2 
FWRI,ioos:station:wmo:mtbf1:1,2013-03-02T06:37:00Z,27.6610,-82.5940,0.0,19.87,2 
FWRI,ioos:station:wmo:mtbf1:1,2013-03-02T07:07:00Z,27.6610,-82.5940,0.0,19.8,2 
FWRI,ioos:station:wmo:mtbf1:1,2013-03-02T07:37:00Z,27.6610,-82.5940,0.0,19.75,2 
FWRI,ioos:station:wmo:mtbf1:1,2013-03-02T08:07:00Z,27.6610,-82.5940,0.0,19.73,2 
FWRI,ioos:station:wmo:mtbf1:1,2013-03-02T08:37:00Z,27.6610,-82.5940,0.0,19.73,2 
FWRI,ioos:station:wmo:mtbf1:1,2013-03-02T09:07:00Z,27.6610,-82.5940,0.0,19.72,2 
FWRI,ioos:station:wmo:mtbf1:1,2013-03-02T09:37:00Z,27.6610,-82.5940,0.0,19.69,2 
FWRI,ioos:station:wmo:mtbf1:1,2013-03-02T10:07:00Z,27.6610,-82.5940,0.0,19.65,2 
FWRI,ioos:station:wmo:mtbf1:1,2013-03-02T10:37:00Z,27.6610,-82.5940,0.0,19.63,2 
FWRI,ioos:station:wmo:mtbf1:1,2013-03-02T11:07:00Z,27.6610,-82.5940,0.0,19.61,2 
FWRI,ioos:station:wmo:mtbf1:1,2013-03-02T11:37:00Z,27.6610,-82.5940,0.0,19.59,2 
FWRI,ioos:station:wmo:mtbf1:1,2013-03-02T12:07:00Z,27.6610,-82.5940,0.0,19.52,2 
FWRI,ioos:station:wmo:mtbf1:1,2013-03-02T12:37:00Z,27.6610,-82.5940,0.0,19.47,2 
FWRI,ioos:station:wmo:mtbf1:1,2013-03-02T13:07:00Z,27.6610,-82.5940,0.0,19.45,2 
FWRI,ioos:station:wmo:mtbf1:1,2013-03-02T13:37:00Z,27.6610,-82.5940,0.0,19.3,2 
FWRI,ioos:station:wmo:mtbf1:1,2013-03-02T14:07:00Z,27.6610,-82.5940,0.0,19.29,2 
FWRI,ioos:station:wmo:mtbf1:1,2013-03-02T14:37:00Z,27.6610,-82.5940,0.0,19.41,2 
FWRI,ioos:station:wmo:mtbf1:1,2013-03-02T15:07:00Z,27.6610,-82.5940,0.0,19.47,2 
FWRI,ioos:station:wmo:mtbf1:1,2013-03-02T15:37:00Z,27.6610,-82.5940,0.0,19.41,2 
FWRI,ioos:station:wmo:mtbf1:1,2013-03-02T16:07:00Z,27.6610,-82.5940,0.0,19.47,2 
FWRI,ioos:station:wmo:mtbf1:1,2013-03-02T16:37:00Z,27.6610,-82.5940,0.0,19.55,2 
FWRI,ioos:station:wmo:mtbf1:1,2013-03-02T17:07:00Z,27.6610,-82.5940,0.0,19.45,2 
FWRI,ioos:station:wmo:mtbf1:1,2013-03-02T17:37:00Z,27.6610,-82.5940,0.0,19.42,2 
FWRI,ioos:station:wmo:mtbf1:1,2013-03-02T18:07:00Z,27.6610,-82.5940,0.0,19.39,2 
FWRI,ioos:station:wmo:mtbf1:1,2013-03-02T18:37:00Z,27.6610,-82.5940,0.0,19.44,2 
FWRI,ioos:station:wmo:mtbf1:1,2013-03-02T19:07:00Z,27.6610,-82.5940,0.0,19.41,2 
FWRI,ioos:station:wmo:mtbf1:1,2013-03-02T19:37:00Z,27.6610,-82.5940,0.0,19.39,2 
FWRI,ioos:station:wmo:mtbf1:1,2013-03-02T20:07:00Z,27.6610,-82.5940,0.0,19.34,2 
FWRI,ioos:station:wmo:mtbf1:1,2013-03-02T20:37:00Z,27.6610,-82.5940,0.0,19.33,2 
FWRI,ioos:station:wmo:mtbf1:1,2013-03-02T21:07:00Z,27.6610,-82.5940,0.0,19.32,2 
FWRI,ioos:station:wmo:mtbf1:1,2013-03-02T21:37:00Z,27.6610,-82.5940,0.0,19.26,2 
FWRI,ioos:station:wmo:mtbf1:1,2013-03-02T22:07:00Z,27.6610,-82.5940,0.0,19.31,2 
FWRI,ioos:station:wmo:mtbf1:1,2013-03-02T22:37:00Z,27.6610,-82.5940,0.0,19.24,2 
FWRI,ioos:station:wmo:mtbf1:1,2013-03-02T23:07:00Z,27.6610,-82.5940,0.0,19.22,2 
FWRI,ioos:station:wmo:mtbf1:1,2013-03-02T23:37:00Z,27.6610,-82.5940,0.0,19.2,2 
FWRI,ioos:station:wmo:mtbf1:1,2013-03-03T00:07:00Z,27.6610,-82.5940,0.0,19.25,2 
FWRI,ioos:station:wmo:mtbf1:1,2013-03-03T00:37:00Z,27.6610,-82.5940,0.0,19.25,2 
FWRI,ioos:station:wmo:mtbf1:1,2013-03-03T01:07:00Z,27.6610,-82.5940,0.0,19.24,2 
FWRI,ioos:station:wmo:mtbf1:1,2013-03-03T01:37:00Z,27.6610,-82.5940,0.0,19.26,2 
FWRI,ioos:station:wmo:mtbf1:1,2013-03-03T02:07:00Z,27.6610,-82.5940,0.0,19.21,2 
FWRI,ioos:station:wmo:mtbf1:1,2013-03-03T02:37:00Z,27.6610,-82.5940,0.0,19.17,2 
FWRI,ioos:station:wmo:mtbf1:1,2013-03-03T03:07:00Z,27.6610,-82.5940,0.0,19.12,2 
FWRI,ioos:station:wmo:mtbf1:1,2013-03-03T03:37:00Z,27.6610,-82.5940,0.0,19.1,2 
FWRI,ioos:station:wmo:mtbf1:1,2013-03-03T04:07:00Z,27.6610,-82.5940,0.0,19.05,2 
FWRI,ioos:station:wmo:mtbf1:1,2013-03-03T04:37:00Z,27.6610,-82.5940,0.0,19.02,2 
FWRI,ioos:station:wmo:mtbf1:1,2013-03-03T05:07:00Z,27.6610,-82.5940,0.0,18.97,2 
FWRI,ioos:station:wmo:mtbf1:1,2013-03-03T05:37:00Z,27.6610,-82.5940,0.0,18.93,2 
FWRI,ioos:station:wmo:mtbf1:1,2013-03-03T06:07:00Z,27.6610,-82.5940,0.0,18.9,2 
FWRI,ioos:station:wmo:mtbf1:1,2013-03-03T06:37:00Z,27.6610,-82.5940,0.0,19.03,2 
FWRI,ioos:station:wmo:mtbf1:1,2013-03-03T07:07:00Z,27.6610,-82.5940,0.0,18.85,2 
FWRI,ioos:station:wmo:mtbf1:1,2013-03-03T07:37:00Z,27.6610,-82.5940,0.0,18.8,2 
FWRI,ioos:station:wmo:mtbf1:1,2013-03-03T08:07:00Z,27.6610,-82.5940,0.0,18.73,2 
FWRI,ioos:station:wmo:mtbf1:1,2013-03-03T08:37:00Z,27.6610,-82.5940,0.0,18.64,2 
FWRI,ioos:station:wmo:mtbf1:1,2013-03-03T09:07:00Z,27.6610,-82.5940,0.0,18.6,2 
FWRI,ioos:station:wmo:mtbf1:1,2013-03-03T09:37:00Z,27.6610,-82.5940,0.0,18.59,2 
FWRI,ioos:station:wmo:mtbf1:1,2013-03-03T10:07:00Z,27.6610,-82.5940,0.0,18.65,2 
FWRI,ioos:station:wmo:mtbf1:1,2013-03-03T10:37:00Z,27.6610,-82.5940,0.0,18.57,2 
FWRI,ioos:station:wmo:mtbf1:1,2013-03-03T11:07:00Z,27.6610,-82.5940,0.0,18.53,2 
FWRI,ioos:station:wmo:mtbf1:1,2013-03-03T11:37:00Z,27.6610,-82.5940,0.0,18.55,2 
FWRI,ioos:station:wmo:mtbf1:1,2013-03-03T12:07:00Z,27.6610,-82.5940,0.0,18.56,2 
FWRI,ioos:station:wmo:mtbf1:1,2013-03-03T12:37:00Z,27.6610,-82.5940,0.0,18.56,2 
FWRI,ioos:station:wmo:mtbf1:1,2013-03-03T13:07:00Z,27.6610,-82.5940,0.0,18.52,2 
FWRI,ioos:station:wmo:mtbf1:1,2013-03-03T13:37:00Z,27.6610,-82.5940,0.0,18.52,2 
FWRI,ioos:station:wmo:mtbf1:1,2013-03-03T14:07:00Z,27.6610,-82.5940,0.0,18.49,2 
FWRI,ioos:station:wmo:mtbf1:1,2013-03-03T14:37:00Z,27.6610,-82.5940,0.0,18.54,2 
FWRI,ioos:station:wmo:mtbf1:1,2013-03-03T15:07:00Z,27.6610,-82.5940,0.0,18.51,2 
FWRI,ioos:station:wmo:mtbf1:1,2013-03-03T15:37:00Z,27.6610,-82.5940,0.0,18.51,2 
FWRI,ioos:station:wmo:mtbf1:1,2013-03-03T16:07:00Z,27.6610,-82.5940,0.0,18.6,2 
FWRI,ioos:station:wmo:mtbf1:1,2013-03-03T16:37:00Z,27.6610,-82.5940,0.0,18.57,2 
FWRI,ioos:station:wmo:mtbf1:1,2013-03-03T17:07:00Z,27.6610,-82.5940,0.0,18.48,2 
FWRI,ioos:station:wmo:mtbf1:1,2013-03-03T17:37:00Z,27.6610,-82.5940,0.0,18.45,2 
FWRI,ioos:station:wmo:mtbf1:1,2013-03-03T18:07:00Z,27.6610,-82.5940,0.0,18.49,2 
FWRI,ioos:station:wmo:mtbf1:1,2013-03-03T18:37:00Z,27.6610,-82.5940,0.0,18.49,2 
FWRI,ioos:station:wmo:mtbf1:1,2013-03-03T19:07:00Z,27.6610,-82.5940,0.0,18.48,2 
FWRI,ioos:station:wmo:mtbf1:1,2013-03-03T19:37:00Z,27.6610,-82.5940,0.0,18.41,2 
FWRI,ioos:station:wmo:mtbf1:1,2013-03-03T20:07:00Z,27.6610,-82.5940,0.0,18.25,2 
FWRI,ioos:station:wmo:mtbf1:1,2013-03-03T20:37:00Z,27.6610,-82.5940,0.0,18.2,2 
FWRI,ioos:station:wmo:mtbf1:1,2013-03-03T21:07:00Z,27.6610,-82.5940,0.0,18.2,2 
FWRI,ioos:station:wmo:mtbf1:1,2013-03-03T21:37:00Z,27.6610,-82.5940,0.0,18.18,2 
FWRI,ioos:station:wmo:mtbf1:1,2013-03-03T22:07:00Z,27.6610,-82.5940,0.0,18.17,2 
FWRI,ioos:station:wmo:mtbf1:1,2013-03-03T22:37:00Z,27.6610,-82.5940,0.0,18.16,2 
FWRI,ioos:station:wmo:mtbf1:1,2013-03-03T23:07:00Z,27.6610,-82.5940,0.0,18.1,2 
FWRI,ioos:station:wmo:mtbf1:1,2013-03-03T23:37:00Z,27.6610,-82.5940,0.0,18.07,2 
FWRI,ioos:station:wmo:mtbf1:1,2013-03-04T00:07:00Z,27.6610,-82.5940,0.0,18.04,2 
FWRI,ioos:station:wmo:mtbf1:1,2013-03-04T00:37:00Z,27.6610,-82.5940,0.0,17.9,2 
FWRI,ioos:station:wmo:mtbf1:1,2013-03-04T01:07:00Z,27.6610,-82.5940,0.0,17.94,2 
FWRI,ioos:station:wmo:mtbf1:1,2013-03-04T01:37:00Z,27.6610,-82.5940,0.0,18.16,2 
FWRI,ioos:station:wmo:mtbf1:1,2013-03-04T02:07:00Z,27.6610,-82.5940,0.0,18.21,2 
FWRI,ioos:station:wmo:mtbf1:1,2013-03-04T02:37:00Z,27.6610,-82.5940,0.0,18.17,2 
FWRI,ioos:station:wmo:mtbf1:1,2013-03-04T03:07:00Z,27.6610,-82.5940,0.0,18.07,2 
FWRI,ioos:station:wmo:mtbf1:1,2013-03-04T03:37:00Z,27.6610,-82.5940,0.0,18.04,2 
FWRI,ioos:station:wmo:mtbf1:1,2013-03-04T04:07:00Z,27.6610,-82.5940,0.0,18.09,2 
FWRI,ioos:station:wmo:mtbf1:1,2013-03-04T04:37:00Z,27.6610,-82.5940,0.0,18.06,2 
FWRI,ioos:station:wmo:mtbf1:1,2013-03-04T05:07:00Z,27.6610,-82.5940,0.0,17.96,2 
FWRI,ioos:station:wmo:mtbf1:1,2013-03-04T05:37:00Z,27.6610,-82.5940,0.0,17.96,2 
FWRI,ioos:station:wmo:mtbf1:1,2013-03-04T06:07:00Z,27.6610,-82.5940,0.0,17.95,2 
FWRI,ioos:station:wmo:mtbf1:1,2013-03-04T06:37:00Z,27.6610,-82.5940,0.0,17.93,2 
FWRI,ioos:station:wmo:mtbf1:1,2013-03-04T07:07:00Z,27.6610,-82.5940,0.0,17.87,2 
FWRI,ioos:station:wmo:mtbf1:1,2013-03-04T07:37:00Z,27.6610,-82.5940,0.0,17.73,2 
FWRI,ioos:station:wmo:mtbf1:1,2013-03-04T08:07:00Z,27.6610,-82.5940,0.0,17.77,2 
FWRI,ioos:station:wmo:mtbf1:1,2013-03-04T08:37:00Z,27.6610,-82.5940,0.0,17.19,2 
FWRI,ioos:station:wmo:mtbf1:1,2013-03-04T09:07:00Z,27.6610,-82.5940,0.0,17.5,2 
FWRI,ioos:station:wmo:mtbf1:1,2013-03-04T09:37:00Z,27.6610,-82.5940,0.0,17.74,2 
FWRI,ioos:station:wmo:mtbf1:1,2013-03-04T10:07:00Z,27.6610,-82.5940,0.0,17.72,2 
FWRI,ioos:station:wmo:mtbf1:1,2013-03-04T10:37:00Z,27.6610,-82.5940,0.0,17.67,2 
FWRI,ioos:station:wmo:mtbf1:1,2013-03-04T11:07:00Z,27.6610,-82.5940,0.0,17.75,2 
FWRI,ioos:station:wmo:mtbf1:1,2013-03-04T11:37:00Z,27.6610,-82.5940,0.0,17.65,2 
FWRI,ioos:station:wmo:mtbf1:1,2013-03-04T12:07:00Z,27.6610,-82.5940,0.0,17.58,2 
FWRI,ioos:station:wmo:mtbf1:1,2013-03-04T12:37:00Z,27.6610,-82.5940,0.0,17.65,2 
FWRI,ioos:station:wmo:mtbf1:1,2013-03-04T13:07:00Z,27.6610,-82.5940,0.0,17.62,2 
FWRI,ioos:station:wmo:mtbf1:1,2013-03-04T13:37:00Z,27.6610,-82.5940,0.0,17.72,2 
FWRI,ioos:station:wmo:mtbf1:1,2013-03-04T14:07:00Z,27.6610,-82.5940,0.0,17.74,2 
FWRI,ioos:station:wmo:mtbf1:1,2013-03-04T14:37:00Z,27.6610,-82.5940,0.0,17.74,2 
FWRI,ioos:station:wmo:mtbf1:1,2013-03-04T15:07:00Z,27.6610,-82.5940,0.0,17.64,2 
FWRI,ioos:station:wmo:mtbf1:1,2013-03-04T15:37:00Z,27.6610,-82.5940,0.0,17.71,2 
FWRI,ioos:station:wmo:mtbf1:1,2013-03-04T16:07:00Z,27.6610,-82.5940,0.0,17.71,2 
FWRI,ioos:station:wmo:mtbf1:1,2013-03-04T16:37:00Z,27.6610,-82.5940,0.0,17.64,2 
FWRI,ioos:station:wmo:mtbf1:1,2013-03-04T17:07:00Z,27.6610,-82.5940,0.0,17.62,2 
FWRI,ioos:station:wmo:mtbf1:1,2013-03-04T17:37:00Z,27.6610,-82.5940,0.0,17.6,2 
FWRI,ioos:station:wmo:mtbf1:1,2013-03-04T18:07:00Z,27.6610,-82.5940,0.0,17.59,2 
FWRI,ioos:station:wmo:mtbf1:1,2013-03-04T18:37:00Z,27.6610,-82.5940,0.0,17.6,2 
FWRI,ioos:station:wmo:mtbf1:1,2013-03-04T19:07:00Z,27.6610,-82.5940,0.0,17.63,2 
FWRI,ioos:station:wmo:mtbf1:1,2013-03-04T19:37:00Z,27.6610,-82.5940,0.0,17.68,2 
FWRI,ioos:station:wmo:mtbf1:1,2013-03-04T20:07:00Z,27.6610,-82.5940,0.0,17.68,2 
FWRI,ioos:station:wmo:mtbf1:1,2013-03-04T20:37:00Z,27.6610,-82.5940,0.0,17.76,2 
FWRI,ioos:station:wmo:mtbf1:1,2013-03-04T21:07:00Z,27.6610,-82.5940,0.0,17.71,2 
FWRI,ioos:station:wmo:mtbf1:1,2013-03-04T21:37:00Z,27.6610,-82.5940,0.0,17.65,2 
FWRI,ioos:station:wmo:mtbf1:1,2013-03-04T22:07:00Z,27.6610,-82.5940,0.0,17.54,2 
FWRI,ioos:station:wmo:mtbf1:1,2013-03-04T22:37:00Z,27.6610,-82.5940,0.0,17.51,2 
FWRI,ioos:station:wmo:mtbf1:1,2013-03-04T23:07:00Z,27.6610,-82.5940,0.0,17.49,2 
FWRI,ioos:station:wmo:mtbf1:1,2013-03-04T23:37:00Z,27.6610,-82.5940,0.0,17.48,2 
FWRI,ioos:station:wmo:mtbf1:1,2013-03-05T00:07:00Z,27.6610,-82.5940,0.0,17.46,2 
FWRI,ioos:station:wmo:mtbf1:1,2013-03-05T00:37:00Z,27.6610,-82.5940,0.0,17.42,2 
FWRI,ioos:station:wmo:mtbf1:1,2013-03-05T01:07:00Z,27.6610,-82.5940,0.0,17.51,2 
FWRI,ioos:station:wmo:mtbf1:1,2013-03-05T01:37:00Z,27.6610,-82.5940,0.0,17.48,2 
FWRI,ioos:station:wmo:mtbf1:1,2013-03-05T02:07:00Z,27.6610,-82.5940,0.0,17.56,2 
FWRI,ioos:station:wmo:mtbf1:1,2013-03-05T02:37:00Z,27.6610,-82.5940,0.0,17.55,2 
FWRI,ioos:station:wmo:mtbf1:1,2013-03-05T03:07:00Z,27.6610,-82.5940,0.0,17.51,2 
FWRI,ioos:station:wmo:mtbf1:1,2013-03-05T03:37:00Z,27.6610,-82.5940,0.0,17.46,2 
FWRI,ioos:station:wmo:mtbf1:1,2013-03-05T04:07:00Z,27.6610,-82.5940,0.0,17.45,2 
FWRI,ioos:station:wmo:mtbf1:1,2013-03-05T04:37:00Z,27.6610,-82.5940,0.0,17.46,2 
FWRI,ioos:station:wmo:mtbf1:1,2013-03-05T05:07:00Z,27.6610,-82.5940,0.0,17.47,2 
FWRI,ioos:station:wmo:mtbf1:1,2013-03-05T05:37:00Z,27.6610,-82.5940,0.0,17.52,2 
FWRI,ioos:station:wmo:mtbf1:1,2013-03-05T06:07:00Z,27.6610,-82.5940,0.0,17.54,2 
FWRI,ioos:station:wmo:mtbf1:1,2013-03-05T06:37:00Z,27.6610,-82.5940,0.0,17.5,2 
FWRI,ioos:station:wmo:mtbf1:1,2013-03-05T07:07:00Z,27.6610,-82.5940,0.0,17.49,2 
FWRI,ioos:station:wmo:mtbf1:1,2013-03-05T07:37:00Z,27.6610,-82.5940,0.0,17.46,2 
FWRI,ioos:station:wmo:mtbf1:1,2013-03-05T08:07:00Z,27.6610,-82.5940,0.0,17.31,2 
FWRI,ioos:station:wmo:mtbf1:1,2013-03-05T08:37:00Z,27.6610,-82.5940,0.0,17.47,2 
FWRI,ioos:station:wmo:mtbf1:1,2013-03-05T09:07:00Z,27.6610,-82.5940,0.0,17.21,2 
FWRI,ioos:station:wmo:mtbf1:1,2013-03-05T09:37:00Z,27.6610,-82.5940,0.0,17.41,2 
FWRI,ioos:station:wmo:mtbf1:1,2013-03-05T10:07:00Z,27.6610,-82.5940,0.0,17.54,2 
FWRI,ioos:station:wmo:mtbf1:1,2013-03-05T10:37:00Z,27.6610,-82.5940,0.0,17.28,2 
FWRI,ioos:station:wmo:mtbf1:1,2013-03-05T11:07:00Z,27.6610,-82.5940,0.0,17.19,2 
FWRI,ioos:station:wmo:mtbf1:1,2013-03-05T11:37:00Z,27.6610,-82.5940,0.0,17.29,2 
FWRI,ioos:station:wmo:mtbf1:1,2013-03-05T12:07:00Z,27.6610,-82.5940,0.0,17.28,2 
FWRI,ioos:station:wmo:mtbf1:1,2013-03-05T12:37:00Z,27.6610,-82.5940,0.0,17.18,2 
FWRI,ioos:station:wmo:mtbf1:1,2013-03-05T13:07:00Z,27.6610,-82.5940,0.0,17.23,2 
FWRI,ioos:station:wmo:mtbf1:1,2013-03-05T14:07:00Z,27.6610,-82.5940,0.0,17.14,2 
FWRI,ioos:station:wmo:mtbf1:1,2013-03-05T14:37:00Z,27.6610,-82.5940,0.0,17.12,2 
FWRI,ioos:station:wmo:mtbf1:1,2013-03-05T15:07:00Z,27.6610,-82.5940,0.0,17.12,2 
FWRI,ioos:station:wmo:mtbf1:1,2013-03-05T15:37:00Z,27.6610,-82.5940,0.0,17.15,2 
FWRI,ioos:station:wmo:mtbf1:1,2013-03-05T16:07:00Z,27.6610,-82.5940,0.0,17.17,2 
FWRI,ioos:station:wmo:mtbf1:1,2013-03-05T16:37:00Z,27.6610,-82.5940,0.0,17.19,2 
FWRI,ioos:station:wmo:mtbf1:1,2013-03-05T17:07:00Z,27.6610,-82.5940,0.0,17.2,2 
FWRI,ioos:station:wmo:mtbf1:1,2013-03-05T17:37:00Z,27.6610,-82.5940,0.0,17.22,2 
FWRI,ioos:station:wmo:mtbf1:1,2013-03-05T18:07:00Z,27.6610,-82.5940,0.0,17.25,2 
FWRI,ioos:station:wmo:mtbf1:1,2013-03-05T18:37:00Z,27.6610,-82.5940,0.0,17.28,2 
FWRI,ioos:station:wmo:mtbf1:1,2013-03-05T19:07:00Z,27.6610,-82.5940,0.0,17.23,2 
FWRI,ioos:station:wmo:mtbf1:1,2013-03-05T19:37:00Z,27.6610,-82.5940,0.0,17.23,2 
FWRI,ioos:station:wmo:mtbf1:1,2013-03-05T20:07:00Z,27.6610,-82.5940,0.0,17.24,2 
FWRI,ioos:station:wmo:mtbf1:1,2013-03-05T20:37:00Z,27.6610,-82.5940,0.0,17.2,2 
FWRI,ioos:station:wmo:mtbf1:1,2013-03-05T21:07:00Z,27.6610,-82.5940,0.0,17.19,2 
FWRI,ioos:station:wmo:mtbf1:1,2013-03-05T21:37:00Z,27.6610,-82.5940,0.0,17.22,2 
FWRI,ioos:station:wmo:mtbf1:1,2013-03-05T22:07:00Z,27.6610,-82.5940,0.0,17.22,2 
FWRI,ioos:station:wmo:mtbf1:1,2013-03-05T22:37:00Z,27.6610,-82.5940,0.0,17.22,2 
FWRI,ioos:station:wmo:mtbf1:1,2013-03-05T23:07:00Z,27.6610,-82.5940,0.0,17.21,2 
FWRI,ioos:station:wmo:mtbf1:1,2013-03-05T23:37:00Z,27.6610,-82.5940,0.0,17.19,2 
FWRI,ioos:station:wmo:mtbf1:1,2013-03-06T00:07:00Z,27.6610,-82.5940,0.0,17.15,2 
FWRI,ioos:station:wmo:mtbf1:1,2013-03-06T00:37:00Z,27.6610,-82.5940,0.0,17.11,2 
FWRI,ioos:station:wmo:mtbf1:1,2013-03-06T01:07:00Z,27.6610,-82.5940,0.0,17.16,2 
FWRI,ioos:station:wmo:mtbf1:1,2013-03-06T01:37:00Z,27.6610,-82.5940,0.0,17.19,2 
FWRI,ioos:station:wmo:mtbf1:1,2013-03-06T02:07:00Z,27.6610,-82.5940,0.0,17.17,2 
FWRI,ioos:station:wmo:mtbf1:1,2013-03-06T02:37:00Z,27.6610,-82.5940,0.0,17.09,2 
FWRI,ioos:station:wmo:mtbf1:1,2013-03-06T03:07:00Z,27.6610,-82.5940,0.0,17.07,2 
FWRI,ioos:station:wmo:mtbf1:1,2013-03-06T03:37:00Z,27.6610,-82.5940,0.0,17.36,2 
FWRI,ioos:station:wmo:mtbf1:1,2013-03-06T04:07:00Z,27.6610,-82.5940,0.0,17.51,2 
FWRI,ioos:station:wmo:mtbf1:1,2013-03-06T04:37:00Z,27.6610,-82.5940,0.0,17.39,2 
FWRI,ioos:station:wmo:mtbf1:1,2013-03-06T05:07:00Z,27.6610,-82.5940,0.0,17.52,2 
FWRI,ioos:station:wmo:mtbf1:1,2013-03-06T05:37:00Z,27.6610,-82.5940,0.0,17.61,2 
FWRI,ioos:station:wmo:mtbf1:1,2013-03-06T06:07:00Z,27.6610,-82.5940,0.0,17.61,2 
FWRI,ioos:station:wmo:mtbf1:1,2013-03-06T06:37:00Z,27.6610,-82.5940,0.0,17.59,2 
FWRI,ioos:station:wmo:mtbf1:1,2013-03-06T07:07:00Z,27.6610,-82.5940,0.0,17.57,2 
FWRI,ioos:station:wmo:mtbf1:1,2013-03-06T07:37:00Z,27.6610,-82.5940,0.0,17.52,2 
FWRI,ioos:station:wmo:mtbf1:1,2013-03-06T08:07:00Z,27.6610,-82.5940,0.0,17.57,2 
FWRI,ioos:station:wmo:mtbf1:1,2013-03-06T08:37:00Z,27.6610,-82.5940,0.0,17.6,2 
FWRI,ioos:station:wmo:mtbf1:1,2013-03-06T09:07:00Z,27.6610,-82.5940,0.0,17.57,2 
FWRI,ioos:station:wmo:mtbf1:1,2013-03-06T09:37:00Z,27.6610,-82.5940,0.0,17.62,2 
FWRI,ioos:station:wmo:mtbf1:1,2013-03-06T10:07:00Z,27.6610,-82.5940,0.0,17.59,2 
FWRI,ioos:station:wmo:mtbf1:1,2013-03-06T10:37:00Z,27.6610,-82.5940,0.0,17.66,2 
FWRI,ioos:station:wmo:mtbf1:1,2013-03-06T11:07:00Z,27.6610,-82.5940,0.0,17.65,2 
FWRI,ioos:station:wmo:mtbf1:1,2013-03-06T11:37:00Z,27.6610,-82.5940,0.0,17.56,2 
FWRI,ioos:station:wmo:mtbf1:1,2013-03-06T12:07:00Z,27.6610,-82.5940,0.0,17.49,2 
FWRI,ioos:station:wmo:mtbf1:1,2013-03-06T12:37:00Z,27.6610,-82.5940,0.0,17.44,2 
FWRI,ioos:station:wmo:mtbf1:1,2013-03-06T13:07:00Z,27.6610,-82.5940,0.0,17.4,2 
FWRI,ioos:station:wmo:mtbf1:1,2013-03-06T13:37:00Z,27.6610,-82.5940,0.0,17.36,2 
FWRI,ioos:station:wmo:mtbf1:1,2013-03-06T14:07:00Z,27.6610,-82.5940,0.0,17.38,2 
FWRI,ioos:station:wmo:mtbf1:1,2013-03-06T14:37:00Z,27.6610,-82.5940,0.0,17.31,2 
FWRI,ioos:station:wmo:mtbf1:1,2013-03-06T15:07:00Z,27.6610,-82.5940,0.0,17.34,2 
FWRI,ioos:station:wmo:mtbf1:1,2013-03-06T15:37:00Z,27.6610,-82.5940,0.0,17.4,2 
FWRI,ioos:station:wmo:mtbf1:1,2013-03-06T16:07:00Z,27.6610,-82.5940,0.0,17.48,2 
FWRI,ioos:station:wmo:mtbf1:1,2013-03-06T16:37:00Z,27.6610,-82.5940,0.0,17.54,2 
FWRI,ioos:station:wmo:mtbf1:1,2013-03-06T17:07:00Z,27.6610,-82.5940,0.0,17.57,2 
FWRI,ioos:station:wmo:mtbf1:1,2013-03-06T17:37:00Z,27.6610,-82.5940,0.0,17.46,2 
FWRI,ioos:station:wmo:mtbf1:1,2013-03-06T18:07:00Z,27.6610,-82.5940,0.0,17.53,2 
FWRI,ioos:station:wmo:mtbf1:1,2013-03-06T18:37:00Z,27.6610,-82.5940,0.0,17.51,2 
FWRI,ioos:station:wmo:mtbf1:1,2013-03-06T19:07:00Z,27.6610,-82.5940,0.0,17.58,2 
FWRI,ioos:station:wmo:mtbf1:1,2013-03-06T19:37:00Z,27.6610,-82.5940,0.0,17.54,2 
FWRI,ioos:station:wmo:mtbf1:1,2013-03-06T20:07:00Z,27.6610,-82.5940,0.0,17.48,2 
FWRI,ioos:station:wmo:mtbf1:1,2013-03-06T20:37:00Z,27.6610,-82.5940,0.0,17.51,2 
FWRI,ioos:station:wmo:mtbf1:1,2013-03-06T21:07:00Z,27.6610,-82.5940,0.0,17.46,2 
FWRI,ioos:station:wmo:mtbf1:1,2013-03-06T21:37:00Z,27.6610,-82.5940,0.0,17.54,2 
FWRI,ioos:station:wmo:mtbf1:1,2013-03-06T22:07:00Z,27.6610,-82.5940,0.0,17.6,2 
FWRI,ioos:station:wmo:mtbf1:1,2013-03-06T22:37:00Z,27.6610,-82.5940,0.0,17.62,2 
FWRI,ioos:station:wmo:mtbf1:1,2013-03-06T23:07:00Z,27.6610,-82.5940,0.0,17.61,2 
FWRI,ioos:station:wmo:mtbf1:1,2013-03-06T23:37:00Z,27.6610,-82.5940,0.0,17.6,2 
FWRI,ioos:station:wmo:mtbf1:1,2013-03-07T00:07:00Z,27.6610,-82.5940,0.0,17.53,2 
FWRI,ioos:station:wmo:mtbf1:1,2013-03-07T00:37:00Z,27.6610,-82.5940,0.0,17.53,2 
FWRI,ioos:station:wmo:mtbf1:1,2013-03-07T01:07:00Z,27.6610,-82.5940,0.0,17.55,2 
FWRI,ioos:station:wmo:mtbf1:1,2013-03-07T01:37:00Z,27.6610,-82.5940,0.0,17.48,2 
FWRI,ioos:station:wmo:mtbf1:1,2013-03-07T02:07:00Z,27.6610,-82.5940,0.0,17.43,2 
FWRI,ioos:station:wmo:mtbf1:1,2013-03-07T02:37:00Z,27.6610,-82.5940,0.0,17.44,2 
FWRI,ioos:station:wmo:mtbf1:1,2013-03-07T03:07:00Z,27.6610,-82.5940,0.0,17.43,2 
FWRI,ioos:station:wmo:mtbf1:1,2013-03-07T03:37:00Z,27.6610,-82.5940,0.0,17.38,2 